Location: Kitchener-Waterloo
(43.4500°N, 80.5000°W)
Time: 19:49:05
(UTC-05:00)

Daily predictions for brighter satellites

Satellite Brightness Start Highest point End
(mag) Time Altitude Azimuth Time Altitude Azimuth Time Altitude Azimuth
CSL-04 Rocket 4.1 17:12:30 10° S 17:17:55 71° WSW 17:23:28 10° NNW
CSL-04 Debris 4.4 17:14:45 10° S 17:20:08 79° WSW 17:25:34 10° NNW
USA 234 3.3 17:17:34 10° NE 17:24:09 81° SE 17:30:42 10° SW
SPOT 3 Rocket 3.7 17:20:50 10° SSE 17:25:52 54° ENE 17:30:55 10° N
Cosmos 1536 3.2 17:23:33 10° NNW 17:27:37 72° W 17:31:40 10° S
Cosmos 372 Rocket 4.1 17:22:35 10° SSW 17:27:50 86° WNW 17:33:08 10° NNE
IRS-1A Rocket 4.4 17:22:42 10° SSE 17:28:12 80° WSW 17:33:46 10° NNW
YAOGAN 1 2.8 17:24:42 10° SE 17:28:50 47° ENE 17:33:01 10° N
Cosmos 1844 Rocket 2.7 17:25:31 10° SSW 17:31:04 71° ESE 17:36:41 10° NNE
Cosmos 1812 3.6 17:28:25 10° SSE 17:31:48 30° E 17:35:12 10° NNE
COSMOS 2487 4.1 17:33:07 10° NNE 17:35:22 16° ENE 17:37:36 10° E
Cosmos 1378 Rocket 4.5 17:31:32 10° SSW 17:35:43 50° WNW 17:39:56 10° N
Meteor 2-19 Rocket 4.4 17:31:28 10° N 17:37:31 66° E 17:43:31 10° SSE
AQUARIUS 4.1 17:33:36 10° SSE 17:38:02 65° ENE 17:42:30 10° N
USA 32 4.1 17:33:18 10° S 17:38:25 61° E 17:43:35 10° NNE
SL-8 Rocket 3.9 17:32:55 10° N 17:39:06 75° E 17:45:15 10° SSE
ISS -3.1 17:36:11 10° WSW 17:39:28 64° NNW 17:42:12 14° NE
CZ-2C R/B 4.4 17:36:42 10° N 17:41:01 54° WNW 17:45:23 10° SSW
Cosmos 1346 Rocket 4.1 17:40:39 10° SE 17:43:29 19° E 17:45:20 14° NE
ATLAS 2AS CENTAUR R/B 3.0 17:37:37 10° NW 17:45:48 82° NE 17:53:25 10° SE
Cosmos 494 Rocket 4.0 17:41:01 10° NNW 17:46:13 60° ENE 17:51:25 10° SSE
IDEFIX/ARIANE 42P 2.5 17:41:11 10° SSE 17:46:21 78° ENE 17:51:34 10° N
CORIOLIS 4.1 17:41:26 10° SSE 17:46:49 72° ENE 17:52:13 10° N
Cosmos 1844 3.6 17:42:18 10° SSW 17:47:49 72° ESE 17:53:22 10° NNE
Cosmos 1455 Rocket 3.1 17:43:54 10° N 17:48:15 57° E 17:52:36 10° SSE
Cosmos 2366 rocket 4.0 17:43:59 10° N 17:50:20 68° E 17:56:36 10° SSE
Cosmos 1959 Rocket 4.4 17:47:52 10° N 17:54:05 82° E 18:00:20 10° S
CZ-3B DEB 2.1 17:51:10 10° SW 17:54:44 73° SE 18:02:20 14° NE
Cosmos 2218 Rocket 4.0 17:48:40 10° N 17:55:00 83° E 18:01:13 10° S
MSX 3.8 17:53:24 10° SSE 17:59:06 70° ENE 18:04:50 10° N
Thor Agena Rocket 3.6 17:56:18 10° NNE 18:01:32 84° WNW 18:06:47 10° SSW
Abrixas 3.4 18:00:01 10° WNW 18:02:45 33° N 18:03:36 27° NE
CZ-4 R/B 2.5 17:59:15 10° S 18:03:19 50° W 18:07:22 10° NNW
SL-24 DEB 4.3 17:59:27 10° NNE 18:04:08 55° E 18:08:44 10° S
SMAP 3.4 17:59:36 10° S 18:04:14 69° WSW 18:08:53 10° NNW
Cosmos 2278 Rocket 2.2 17:58:48 10° S 18:04:20 60° ESE 18:09:21 13° NNE
OTV 4 3.8 18:06:40 10° SSW 18:06:55 10° SSW 18:07:10 10° SSW
Cosmos 1238 Rocket 2.1 18:04:51 10° S 18:07:47 79° W 18:10:50 10° N
BREEZE-M R/B 4.4 17:57:27 10° SW 18:08:47 70° SSE 18:12:20 23° ENE
OPS 8737 4.2 18:05:39 10° SW 18:08:57 89° WNW 18:10:36 26° NE
Timation 2 Rocket 4.4 18:02:28 10° NNW 18:09:00 46° NE 18:15:35 10° SE
CZ-2C R/B 3.0 18:05:35 10° S 18:10:30 61° W 18:15:36 10° NNW
Cosmos 1975 2.7 18:06:34 10° N 18:10:38 65° E 18:14:38 10° SSE
Meteor 1-12 Rocket 4.2 18:05:35 10° N 18:11:23 85° ENE 18:17:17 10° S
Cosmos 2251 Rocket 3.9 18:07:33 10° NNW 18:12:54 70° WSW 18:18:10 10° S
MONITOR-E 4.1 18:10:09 10° SSE 18:13:20 80° E 18:16:34 10° N
SL-27 R/B 4.4 18:16:08 10° NW 18:19:28 34° WSW 18:22:46 10° SSW
Genesis I 3.2 18:17:19 10° NNW 18:21:14 58° NE 18:23:19 25° SE
COSMOS 2441 4.4 18:17:05 10° SSE 18:21:57 87° WSW 18:26:53 10° NNW
Cosmos 1821 Rocket 4.3 18:19:24 10° N 18:25:06 39° ENE 18:30:44 10° SE
NOAA 12 4.3 18:21:23 10° SE 18:26:23 45° ENE 18:31:22 10° N
Cosmos 2082 Rocket 2.3 18:23:06 10° NNW 18:28:35 49° ENE 18:33:41 12° SE
SL-8 R/B 3.6 18:24:14 10° WSW 18:29:00 78° SSE 18:30:50 38° ENE
Cosmos 1484 Rocket 2.6 18:25:48 10° SSE 18:29:33 84° WSW 18:33:18 10° NNW
Cosmos 1833 Rocket 3.0 18:24:48 10° NNW 18:30:12 43° ENE 18:33:05 25° ESE
Meteor 2-21 4.3 18:25:45 10° N 18:31:58 78° E 18:38:06 10° SSE
Meteor 1-13 Rocket 4.3 18:26:37 10° S 18:32:07 56° E 18:37:11 13° NNE
METEOR-M 4.3 18:29:26 10° SE 18:34:29 45° ENE 18:39:34 10° N
COSMO-SKYMED 1 2.5 18:34:05 16° NNE 18:37:31 89° ESE 18:41:51 10° SSW
Cosmos 1500 3.5 18:36:58 10° NNW 18:40:47 67° W 18:44:35 10° S
Meteor 1-28 Rocket 3.2 18:45:29 61° SE 18:45:29 61° SE 18:48:55 10° S
Nadezhda 3 Rocket 3.9 18:42:58 10° S 18:49:10 86° E 18:55:28 10° N
SL-24 R/B - RUBIN 2 4.4 18:45:33 10° SSW 18:51:50 75° ESE 18:54:43 36° NE
Meteor 2-14 Rocket 4.3 18:47:47 10° N 18:53:59 85° E 19:00:08 10° S
Timation 1 Rocket 4.3 18:48:13 10° S 18:54:02 60° ESE 18:55:27 47° ENE
GEOS 3 Rocket 3.6 18:53:31 15° SSE 18:57:51 76° SW 19:03:00 10° NW
Tiangong 1 3.2 18:55:49 10° SW 18:57:12 21° SSW 18:57:12 21° SSW
Meteor 2-4 Rocket 3.7 18:53:49 10° S 18:58:30 51° ESE 18:58:30 51° ESE
USA 234 4.1 19:03:52 27° NNE 19:06:50 41° NNW 19:12:50 10° W
Cosmos 1025 Rocket 4.4 19:05:19 10° S 19:07:28 29° S 19:07:28 29° S
COSMOS 2487 4.0 19:07:43 10° NW 19:11:04 36° WSW 19:12:59 20° SSW
ATLAS 3B CENTAUR R/B 4.3 18:56:40 10° WSW 19:11:36 33° SSW 19:15:57 20° SSE
Cosmos 921 Rocket 3.4 19:11:06 10° SSW 19:14:35 57° SW 19:14:35 57° SW
ISS -0.6 19:13:47 10° WNW 19:14:53 16° NW 19:14:53 16° NW
BREEZE M DEB (TANK) 3.5 19:16:13 10° WNW 19:20:15 77° NNE 19:21:54 56° E
Cosmos 1371 Rocket 4.4 19:16:03 10° S 19:20:09 53° S 19:20:09 53° S
NOSS 3-4 (A) 3.7 19:14:34 10° NNW 19:21:31 64° NE 19:21:59 62° ENE
NOSS 3-4 (C) 3.7 19:14:41 10° NNW 19:21:37 63° NE 19:22:03 62° ENE
Cosmos 2297 4.2 19:28:34 10° SW 19:34:06 56° WNW 19:35:05 49° NNW
Cosmos 1934 Rocket 4.3 19:39:08 10° NNW 19:45:14 63° W 19:51:25 10° S
Cosmos 2278 Rocket 4.1 19:44:20 10° WSW 19:48:50 24° NW 19:51:13 18° NNW
Cosmos 2082 Rocket 4.1 20:07:47 10° NW 20:12:20 25° WSW 20:15:49 15° SSW
Cosmos 1833 Rocket 4.4 20:09:08 10° NW 20:13:54 29° WSW 20:14:56 27° WSW
CZ-3B DEB 4.1 20:24:48 10° WNW 20:30:57 45° N 20:30:57 45° N
